EW7146 Weather Reports


time (UTC)temp
C
wind
direction
speed
KPH
gust
KPH
rain 1hr
cm
rain 24hr
cm
rain mn
cm
humidity
%
barometer
mb
20260504202021 27 295 8.0 17.7 0.00 0.00 0.00 21 1020.8
20260504201521 27 276 9.7 20.9 0.00 0.00 0.00 21 1020.9
20260504201019 27 320 6.4 20.9 0.00 0.00 0.00 23 1020.9
20260504200521 27 300 9.7 17.7 0.00 0.00 0.00 21 1020.9
20260504200020 27 155 8.0 20.9 0.00 0.00 0.00 22 1021.0
20260504195522 27 262 9.7 20.9 0.00 0.00 0.00 22 1021.0
20260504195020 27 269 6.4 20.9 0.00 0.00 0.00 22 1021.0
20260504194519 27 265 11.3 20.9 0.00 0.00 0.00 20 1021.0
20260504194020 27 300 3.2 20.9 0.00 0.00 0.00 22 1021.0
20260504193746 27 240 12.9 20.9 0.00 0.00 0.00 22 1021.1
20260504193243 27 285 9.7 20.9 0.00 0.00 0.00 23 1021.0
20260504192520 27 269 6.4 16.1 0.00 0.00 0.00 24 1021.1
20260504192020 26 307 4.8 17.7 0.00 0.00 0.00 25 1021.4
20260504191520 26 288 9.7 17.7 0.00 0.00 0.00 23 1021.4
20260504191021 26 314 4.8 17.7 0.00 0.00 0.00 24 1021.5
20260504190518 26 264 8.0 16.1 0.00 0.00 0.00 24 1021.5
20260504190019 26 283 9.7 19.3 0.00 0.00 0.00 23 1021.7
20260504185519 26 303 12.9 19.3 0.00 0.00 0.00 23 1021.8
20260504185019 26 264 6.4 16.1 0.00 0.00 0.00 23 1021.7
20260504184737 26 269 9.7 17.7 0.00 0.00 0.00 23 1021.8
20260504184018 26 281 4.8 30.6 0.00 0.00 0.00 23 1021.9
20260504184008 25 258 14.5 30.6 0.00 0.00 0.00 23 1021.8
20260504183254 26 265 11.3 20.9 0.00 0.00 0.00 23 1021.9
20260504182520 26 295 6.4 20.9 0.00 0.00 0.00 25 1021.9
20260504182018 25 266 3.2 17.7 0.00 0.00 0.00 26 1022.0
20260504181519 25 289 9.7 17.7 0.00 0.00 0.00 24 1022.0
20260504181239 26 290 8.0 16.1 0.00 0.00 0.00 24 1022.0
20260504180514 26 290 3.2 14.5 0.00 0.00 0.00 24 1022.0
20260504180018 26 226 3.2 17.7 0.00 0.00 0.00 24 1022.0
20260504175518 25 271 6.4 17.7 0.00 0.00 0.00 25 1022.0
20260504175019 25 276 6.4 19.3 0.00 0.00 0.00 25 1022.0
20260504174518 25 275 8.0 19.3 0.00 0.00 0.00 25 1022.1
20260504174459 25 290 9.7 19.3 0.00 0.00 0.00 25 1022.1
20260504173517 25 279 4.8 19.3 0.00 0.00 0.00 26 1022.1
20260504173017 25 324 8.0 19.3 0.00 0.00 0.00 26 1022.1
20260504172518 25 265 9.7 17.7 0.00 0.00 0.00 25 1022.3
20260504172016 25 271 1.6 16.1 0.00 0.00 0.00 27 1022.3
20260504171518 24 275 0.0 11.3 0.00 0.00 0.00 30 1022.3
20260504171016 23 243 1.6 8.0 0.00 0.00 0.00 34 1022.5
20260504170745 23 309 1.6 6.4 0.00 0.00 0.00 32 1022.4
20260504151011 15 56 0.0 3.2 0.00 0.00 0.00 52 1023.9
20260504150513 15 76 1.6 3.2 0.00 0.00 0.00 54 1024.0
20260504141012 8 66 0.0 0.0 0.00 0.00 0.00 74 1023.9
20260504140512 8 66 0.0 0.0 0.00 0.00 0.00 75 1024.0
20260504130511 5 155 0.0 1.6 0.00 0.00 0.00 78 1023.8
20260504120237 6 128 0.0 1.6 0.00 0.00 0.00 73 1023.6
20260504110509 8 154 0.0 0.0 0.00 0.00 0.00 70 1023.5
20260504100508 8 142 0.0 0.0 0.00 0.00 0.00 66 1023.6
20260504082004 11 200 3.2 3.2 0.00 0.00 0.00 56 1023.3
20260504081505 11 200 0.0 4.8 0.00 0.00 0.00 55 1023.2
20260504081004 12 216 1.6 4.8 0.00 0.00 0.00 55 1023.2
20260504080948 12 213 3.2 4.8 0.00 0.00 0.00 55 1023.2
20260504050500 16 209 1.6 6.4 0.00 0.00 0.00 42 1022.6
20260504050001 16 137 3.2 6.4 0.00 0.00 0.00 42 1022.5
20260504045459 16 157 0.0 8.0 0.00 0.00 0.00 42 1022.4
20260504045001 16 289 4.8 8.0 0.00 0.00 0.00 43 1022.4
20260504044500 16 104 0.0 3.2 0.00 0.00 0.00 39 1022.3
20260504044000 17 244 0.0 3.2 0.00 0.00 0.00 39 1022.2
20260504043500 17 248 1.6 3.2 0.00 0.00 0.00 38 1022.2
20260504043000 17 234 1.6 4.8 0.00 0.00 0.00 39 1022.2
20260504042943 16 285 3.2 4.8 0.00 0.00 0.00 40 1022.1
20260504041959 16 221 1.6 3.2 0.00 0.00 0.00 41 1022.1
20260504041501 17 241 0.0 3.2 0.00 0.00 0.00 39 1022.1
20260504041000 16 238 1.6 3.2 0.00 0.00 0.00 40 1021.9
20260504040500 16 233 0.0 1.6 0.00 0.00 0.00 40 1022.0
20260504040224 17 231 0.0 3.2 0.00 0.00 0.00 40 1022.0
20260504035726 17 231 0.0 3.2 0.00 0.00 0.00 41 1021.9
20260504034958 17 234 0.0 1.6 0.00 0.00 0.00 41 1021.9
20260504034459 17 234 0.0 1.6 0.00 0.00 0.00 41 1021.8
20260504033959 17 4 0.0 3.2 0.00 0.00 0.00 40 1021.7
20260504033458 18 4 0.0 3.2 0.00 0.00 0.00 38 1021.6
20260504033002 18 223 0.0 1.6 0.00 0.00 0.00 37 1021.6
20260504032724 18 226 0.0 1.6 0.00 0.00 0.00 37 1021.6
20260504032000 18 238 0.0 1.6 0.00 0.00 0.00 39 1021.5
20260504031457 18 234 0.0 1.6 0.00 0.00 0.00 39 1021.4
20260504031218 19 254 0.0 0.0 0.00 0.00 0.00 37 1021.3
20260504030502 19 254 0.0 1.6 0.00 0.00 0.00 35 1021.3
20260504025958 20 254 0.0 1.6 0.00 0.00 0.00 35 1021.3
20260504025457 20 298 0.0 1.6 0.00 0.00 0.00 33 1021.1
20260504025217 21 271 0.0 1.6 0.00 0.00 0.00 32 1021.0
20260504024458 21 228 0.0 1.6 0.00 0.00 0.00 32 1021.0
20260504023958 21 228 1.6 1.6 0.00 0.00 0.00 32 1021.0
20260504023458 22 237 0.0 1.6 0.00 0.00 0.00 30 1021.0
20260504023214 23 237 1.6 3.2 0.00 0.00 0.00 29 1020.9
20260504022456 23 254 0.0 3.2 0.00 0.00 0.00 27 1020.9
20260504021957 25 254 0.0 3.2 0.00 0.00 0.00 27 1020.9
20260504021717 25 247 1.6 3.2 0.00 0.00 0.00 27 1021.0
20260504021219 26 254 0.0 3.2 0.00 0.00 0.00 26 1021.0
20260504020726 26 269 0.0 8.0 0.00 0.00 0.00 26 1021.1
20260504015958 27 275 1.6 9.7 0.00 0.00 0.00 23 1021.1
20260504015456 27 289 6.4 9.7 0.00 0.00 0.00 20 1021.1
20260504014958 27 241 4.8 8.0 0.00 0.00 0.00 20 1021.1
20260504014456 28 269 1.6 4.8 0.00 0.00 0.00 21 1021.1
20260504013955 28 285 1.6 14.5 0.00 0.00 0.00 21 1021.1
20260504013719 28 269 3.2 14.5 0.00 0.00 0.00 21 1021.1
20260504012955 28 276 1.6 8.0 0.00 0.00 0.00 19 1021.1
20260504012456 28 254 1.6 11.3 0.00 0.00 0.00 19 1021.1
20260504011955 28 282 1.6 11.3 0.00 0.00 0.00 19 1021.1
20260504011457 28 262 0.0 8.0 0.00 0.00 0.00 19 1021.3
20260504010955 29 285 3.2 8.0 0.00 0.00 0.00 19 1021.3
20260504010457 29 316 3.2 8.0 0.00 0.00 0.00 17 1021.3
20260504010007 29 274 1.6 14.5 0.00 0.00 0.00 18 1021.3
20260504005455 28 305 3.2 17.7 0.00 0.00 0.00 17 1021.4
20260504004955 28 266 4.8 17.7 0.00 0.00 0.00 17 1021.4
20260504004713 29 281 3.2 14.5 0.00 0.00 0.00 17 1021.5
20260504003955 29 282 6.4 14.5 0.00 0.00 0.00 17 1021.5
20260504003455 29 307 6.4 14.5 0.00 0.00 0.00 17 1021.6
20260504002956 29 272 3.2 11.3 0.00 0.00 0.00 18 1021.6
20260504002453 29 316 3.2 8.0 0.00 0.00 0.00 16 1021.6
20260504001955 29 32 1.6 9.7 0.00 0.00 0.00 18 1021.6
20260504001454 29 264 1.6 17.7 0.00 0.00 0.00 17 1021.6
20260504000954 28 255 6.4 17.7 0.00 0.00 0.00 17 1021.7
20260504000454 29 252 6.4 16.1 0.00 0.00 0.00 17 1021.7
20260503235954 29 262 9.7 16.1 0.00 0.00 0.00 16 1021.7
20260503235454 29 278 6.4 14.5 0.00 0.00 0.00 16 1021.8
20260503234954 29 235 1.6 14.5 0.00 0.00 0.00 18 1021.8
20260503234454 29 290 3.2 14.5 0.00 0.00 0.00 16 1021.8
20260503234218 29 251 0.0 9.7 0.00 0.00 0.00 18 1021.9
20260503233711 29 299 4.8 14.5 0.00 0.00 0.00 17 1022.0
20260503232952 29 279 6.4 16.1 0.00 0.00 0.00 16 1021.9
20260503232453 29 269 8.0 16.1 0.00 0.00 0.00 16 1022.0
20260503231957 29 262 4.8 14.5 0.00 0.00 0.00 16 1022.1
20260503231456 29 268 8.0 11.3 0.00 0.00 0.00 16 1022.2
20260503230953 29 290 4.8 17.7 0.00 0.00 0.00 17 1022.2
20260503230453 29 266 6.4 17.7 0.00 0.00 0.00 16 1022.3
20260503225953 30 337 0.0 8.0 0.00 0.00 0.00 16 1022.3
20260503225452 30 100 0.0 8.0 0.00 0.00 0.00 17 1022.4
20260503224952 29 233 0.0 8.0 0.00 0.00 0.00 18 1022.5
20260503224452 29 214 4.8 14.5 0.00 0.00 0.00 16 1022.6
20260503223951 29 333 6.4 14.5 0.00 0.00 0.00 15 1022.7
20260503223452 30 281 3.2 8.0 0.00 0.00 0.00 17 1022.9
20260503222951 30 245 3.2 8.0 0.00 0.00 0.00 16 1023.0
20260503222453 30 319 3.2 9.7 0.00 0.00 0.00 17 1023.0
20260503221951 29 20 3.2 11.3 0.00 0.00 0.00 17 1023.0
20260503221453 29 347 1.6 11.3 0.00 0.00 0.00 17 1023.1
20260503220952 29 69 1.6 9.7 0.00 0.00 0.00 17 1023.2
20260503220450 30 283 3.2 9.7 0.00 0.00 0.00 18 1023.3
20260503215951 29 355 1.6 6.4 0.00 0.00 0.00 16 1023.4
20260503215934 28 289 3.2 9.7 0.00 0.00 0.00 15 1023.3
20260503215218 28 133 1.6 9.7 0.00 0.00 0.00 16 1023.4
20260503214711 29 10 3.2 9.7 0.00 0.00 0.00 15 1023.5
20260503213952 29 44 3.2 6.4 0.00 0.00 0.00 16 1023.7
20260503213451 29 298 1.6 9.7 0.00 0.00 0.00 17 1023.7
20260503212952 29 343 3.2 14.5 0.00 0.00 0.00 18 1023.6
20260503212932 29 254 6.4 14.5 0.00 0.00 0.00 16 1023.9
20260503211949 28 324 0.0 9.7 0.00 0.00 0.00 19 1023.7
20260503211449 28 159 3.2 11.3 0.00 0.00 0.00 16 1023.7
20260503210949 28 306 1.6 11.3 0.00 0.00 0.00 17 1023.9
20260503210450 28 268 1.6 6.4 0.00 0.00 0.00 17 1023.9
20260503205949 28 348 0.0 4.8 0.00 0.00 0.00 18 1024.0
20260503205450 28 302 0.0 11.3 0.00 0.00 0.00 17 1024.0
20260503205211 28 80 4.8 11.3 0.00 0.00 0.00 18 1024.1
20260503204451 28 49 4.8 9.7 0.00 0.00 0.00 19 1024.1
20260503203948 28 37 1.6 8.0 0.00 0.00 0.00 19 1024.2
20260503203713 28 44 6.4 11.3 0.00 0.00 0.00 19 1024.4
20260503202946 28 62 4.8 11.3 0.00 0.00 0.00 18 1024.5
20260503202448 28 48 1.6 11.3 0.00 0.00 0.00 17 1024.5